Temperature
20 20 20 20 23 24 23 23 23 22 22 21 21 21 21 21 21 19 16 16 16 16 16 16 17 17 17 17 17 17 17 17 17 17 17 17 17 17 17 17 17 17 17 17 17 17 17 17 17
20 20 20 22 24 24 23 23 22 22 21 20 20 21 20 19 18 17 16 16 16 16 16 16 16 16 17 17 17 17 17 17 17 17 17 16 16 16 16 16 17 17 17 17 17 17 17 17 17
20 20 21 24 24 24 22 22 22 21 20 21 20 20 19 18 17 17 16 16 16 16 16 16 16 16 16 16 17 17 17 17 16 16 16 16 16 16 16 16 16 16 17 17 17 17 17 17 17
20 21 23 25 23 23 22 22 22 21 21 20 20 20 18 17 17 16 16 16 16 16 16 16 16 16 16 16 16 16 16 16 16 16 16 16 16 16 16 16 16 16 16 16 16 17 17 17 17
20 23 24 24 23 22 22 21 21 22 21 20 21 20 18 17 16 16 16 16 16 16 16 16 16 16 16 16 16 16 16 16 16 16 16 16 16 16 16 16 16 16 16 16 16 16 16 16 17
22 24 24 23 22 22 21 21 21 22 21 20 20 20 17 16 16 16 16 16 16 16 16 16 16 16 16 16 16 16 16 16 16 16 16 15 15 15 15 15 16 16 16 16 16 16 16 16 16
23 24 24 23 22 21 21 21 21 21 21 20 20 19 17 17 16 16 16 16 16 16 16 16 16 16 16 16 16 16 16 16 16 16 16 16 16 15 15 15 15 15 15 16 16 16 16 16 16
21 24 23 23 22 21 21 21 20 21 20 19 19 19 18 17 16 16 16 16 16 16 16 16 16 16 16 16 16 16 16 16 16 16 16 16 15 15 15 15 15 15 15 15 16 16 16 16 16
21 24 23 23 22 21 21 21 20 20 20 19 19 19 18 17 16 16 16 16 16 16 16 16 16 16 16 16 16 16 16 16 16 16 16 15 15 15 15 15 15 15 16 16 16 16 16 16 16
22 23 23 23 23 22 21 21 20 20 20 19 18 18 17 17 17 17 17 17 17 17 16 16 16 16 16 16 16 16 16 15 15 15 15 15 15 15 15 16 16 16 16 16 16 16 16 16 16
22 22 22 22 22 21 21 21 20 21 21 20 19 18 17 17 17 17 18 18 17 17 16 16 16 16 16 16 16 16 16 15 15 15 15 16 16 15 15 15 15 15 15 15 15 16 16 16 16
22 21 21 21 21 21 21 21 21 21 20 20 19 18 18 18 18 18 18 18 17 17 17 16 17 16 16 16 16 16 16 15 15 16 16 16 16 15 15 15 15 15 15 15 15 15 16 16 16
21 21 20 20 20 21 21 21 20 19 19 19 18 18 18 18 18 18 18 18 17 17 17 17 16 17 16 16 16 16 16 16 16 16 15 15 16 15 15 15 15 15 15 15 15 15 15 16 16
20 20 20 20 20 20 21 20 20 19 19 18 18 18 18 18 18 18 18 18 18 17 17 17 16 16 16 16 16 16 16 16 15 15 15 15 15 15 15 15 15 15 15 15 15 15 15 15 15
20 21 21 20 21 20 21 21 21 19 19 19 19 19 18 18 18 18 18 18 18 18 17 17 16 16 16 16 16 16 16 15 15 15 15 15 15 15 15 15 15 15 15 15 15 15 15 15 15
21 21 21 20 21 20 22 21 21 19 19 19 19 19 18 18 18 18 18 18 18 18 17 17 17 16 16 16 16 16 16 15 15 15 15 15 15 15 15 15 15 15 15 15 15 15 15 15 15
21 21 21 20 21 21 22 21 21 19 20 20 19 19 19 19 19 18 18 18 18 18 17 17 17 16 16 16 16 16 16 15 15 15 15 15 15 15 15 15 15 15 15 15 15 15 15 15 15
21 21 21 21 21 21 21 21 21 20 20 20 20 20 19 20 19 19 18 18 18 18 17 17 17 17 16 16 16 16 16 15 15 15 15 15 15 15 15 15 15 15 15 15 15 15 15 15 15
22 22 21 21 21 21 21 21 21 20 20 20 20 20 20 20 19 19 18 18 18 18 17 17 17 17 16 16 16 16 15 15 15 15 15 15 15 15 15 15 15 15 15 15 15 14 14 14 14
21 21 21 21 21 21 21 21 22 21 21 21 21 21 20 20 19 19 18 18 18 18 17 17 17 17 16 16 16 16 16 15 15 15 15 15 15 15 15 15 15 15 15 14 14 14 14 14 14
21 21 21 21 21 21 21 21 22 22 21 20 20 20 21 20 20 19 19 19 18 18 18 18 17 17 17 17 16 16 16 16 15 15 15 15 15 15 15 15 15 15 14 14 14 14 14 14 14
21 21 21 21 21 21 21 21 22 22 22 21 20 20 20 20 20 20 19 19 19 18 18 18 17 17 17 17 16 16 16 16 15 15 15 15 15 15 15 15 15 15 14 14 14 14 14 14 14
21 21 21 21 21 21 22 22 23 23 22 23 22 21 21 20 20 20 19 19 19 19 18 18 17 17 17 17 17 16 16 16 16 15 15 15 15 15 15 15 15 15 14 14 14 14 14 14 14
21 21 21 21 22 21 22 22 23 23 23 23 23 22 21 21 20 20 19 19 19 19 18 18 18 17 17 17 17 16 16 16 16 16 15 15 15 15 15 15 15 14 14 14 14 14 14 14 14
21 21 21 21 21 21 22 22 23 24 24 24 23 23 22 21 21 20 20 19 19 19 19 18 18 18 17 17 17 17 16 16 16 16 15 15 15 15 15 15 15 14 14 14 14 14 14 14 14
22 22 22 21 21 22 22 23 24 24 23 23 23 22 22 21 21 21 20 20 19 19 19 19 18 18 18 17 17 17 17 16 16 16 15 15 15 15 15 15 14 14 14 14 14 14 13 13 13
22 22 23 22 22 22 23 23 24 24 24 23 23 23 22 22 21 21 20 20 20 20 19 19 19 18 18 18 17 17 17 16 16 16 16 15 15 15 15 15 14 14 14 14 14 14 13 13 13
22 22 22 22 22 22 23 23 24 24 24 24 23 23 22 21 21 21 20 20 20 20 20 19 19 18 18 18 17 17 17 17 16 16 16 16 15 15 15 15 14 14 14 14 14 13 13 13 13
22 22 22 22 22 22 22 23 24 24 24 24 23 23 22 21 21 21 20 20 20 20 20 19 19 18 18 18 17 17 17 17 16 16 16 16 15 15 15 15 14 14 14 14 13 13 13 13 12
22 23 23 22 22 23 23 23 24 24 23 23 23 22 22 21 20 20 20 20 20 20 20 19 19 19 18 18 17 17 17 17 16 16 16 16 15 15 15 15 14 14 14 13 13 13 13 13 12
Wind_Speed
2 3 3 2 3 2 4 4 4 6 5 6 7 7 7 7 5 6 5 5 6 7 8 10 11 12 12 13 13 13 13 12 12 12 12 11 11 11 10 10 10 10 9 9 8 8 8 8 7
1 2 3 3 2 3 4 4 7 7 8 8 7 7 8 7 7 7 6 6 7 9 9 11 12 12 13 13 13 13 13 13 12 12 12 11 10 10 10 9 9 9 8 8 8 8 8 8 7
2 2 2 1 1 3 5 7 10 10 8 5 5 6 5 6 5 5 7 8 9 10 10 12 11 12 12 12 13 13 13 13 12 12 11 11 10 10 9 9 9 8 8 8 8 8 8 8 8
2 2 2 2 7 6 6 9 11 10 6 6 7 8 6 6 5 8 9 9 10 10 11 12 11 12 12 12 12 12 12 12 11 11 11 10 10 9 9 8 8 8 8 9 9 8 8 8 8
2 2 3 5 6 6 8 8 6 7 6 6 7 9 8 7 10 11 10 9 10 10 11 12 11 12 12 12 11 11 11 11 10 10 10 9 9 9 8 8 8 8 8 8 8 8 8 8 7
2 2 4 6 7 7 6 5 6 8 9 9 10 10 7 7 10 10 10 9 9 9 10 12 12 12 12 11 10 10 10 10 10 9 9 9 9 9 9 8 8 8 8 8 8 8 7 7 8
1 2 4 7 8 7 5 4 5 8 10 7 7 8 8 9 9 9 9 9 9 9 9 9 10 11 10 10 10 10 9 9 9 9 9 8 8 8 8 8 8 8 8 8 8 7 7 8 7
1 2 5 6 8 6 7 6 7 8 9 8 5 7 9 10 10 9 9 8 8 8 8 8 8 8 8 8 9 9 9 9 8 8 8 6 5 6 5 6 8 8 8 8 8 7 7 7 7
2 3 5 6 7 8 9 8 6 6 9 6 5 8 12 14 12 10 9 8 8 7 7 7 7 7 6 7 7 7 7 6 4 6 5 2 5 6 6 10 9 8 8 8 8 7 5 4 6
1 3 4 4 5 9 11 9 8 8 10 9 11 13 14 13 12 11 9 9 8 8 7 6 6 6 6 5 6 5 6 6 6 6 6 5 6 6 5 7 6 6 5 5 6 3 1 1 4
2 3 6 5 7 11 10 8 6 9 9 11 16 16 14 13 11 10 9 8 8 7 6 6 6 6 5 5 5 5 5 5 6 7 6 5 5 4 5 4 4 4 3 4 3 1 4 4 4
4 6 6 7 8 10 9 8 8 6 8 12 15 16 14 12 10 9 9 8 8 7 6 6 5 6 6 6 5 5 5 5 5 6 7 6 5 4 5 4 5 4 4 4 3 3 4 5 4
6 6 7 8 8 9 10 9 8 9 11 14 15 14 12 10 9 8 8 8 7 7 6 5 4 5 6 6 5 5 5 5 6 5 6 7 5 4 4 5 4 4 4 3 3 3 5 4 5
7 10 9 8 9 8 11 9 8 10 13 14 14 12 11 10 9 8 8 7 7 7 7 5 4 5 5 5 5 5 5 5 5 6 6 7 6 5 4 5 5 5 5 4 3 4 4 4 4
11 11 8 6 6 6 9 8 8 12 14 13 12 11 10 8 8 7 7 6 7 7 6 5 4 4 4 5 5 5 5 5 6 6 7 7 7 6 5 5 5 5 4 4 4 4 3 4 4
7 7 6 5 5 5 6 7 9 12 13 12 11 10 9 8 7 7 6 6 6 6 6 6 4 4 5 4 4 5 5 5 5 5 6 7 7 7 5 5 5 5 5 4 4 4 3 4 4
5 7 8 7 4 4 5 7 9 11 12 11 11 10 10 9 8 7 7 7 6 6 7 6 5 5 5 5 5 5 5 5 5 5 6 6 7 7 6 5 5 5 4 4 4 4 3 4 4
8 8 8 7 5 6 6 6 8 10 11 11 11 11 10 9 9 8 8 7 6 6 6 6 6 6 6 5 4 4 4 4 4 5 5 6 6 6 6 5 5 5 4 4 4 4 3 3 3
7 8 7 5 5 6 6 6 7 10 11 11 11 11 11 9 8 8 8 8 8 7 7 7 7 7 6 4 3 3 3 3 3 4 5 5 6 6 6 5 6 5 4 4 4 3 4 3 2
8 8 7 6 5 4 5 5 6 8 10 11 11 11 11 10 10 9 10 9 9 9 8 8 7 7 6 4 3 2 3 3 3 3 4 5 5 6 5 6 5 5 4 4 5 3 2 3 2
6 7 7 6 6 5 4 4 6 7 8 9 10 11 11 11 11 11 11 11 10 10 9 8 8 7 7 6 4 4 3 3 3 3 3 3 4 5 5 5 5 5 4 4 4 3 3 2 2
5 5 6 7 6 4 4 4 7 8 10 11 12 12 13 12 12 11 11 12 12 11 10 9 8 7 7 7 6 5 3 2 2 2 2 3 3 4 4 4 5 5 4 4 4 4 3 2 2
4 4 4 4 3 3 4 3 5 9 10 12 13 14 14 14 13 12 12 12 11 11 10 9 9 8 7 7 6 5 3 3 3 3 3 2 3 3 3 4 4 4 4 4 4 4 4 3 3
6 6 4 3 2 3 4 4 4 7 10 10 12 13 14 13 13 13 12 11 10 10 10 9 9 8 8 8 7 6 5 4 4 4 3 2 2 2 3 2 3 3 3 4 4 3 4 3 3
6 5 4 4 4 2 3 4 2 3 6 9 11 12 13 13 13 13 13 13 12 12 11 11 11 10 9 9 8 7 6 6 5 4 3 2 2 2 2 1 2 2 3 3 3 3 3 3 3
6 5 2 2 3 3 4 3 0 1 3 6 9 10 11 12 13 13 14 13 12 12 12 12 12 11 10 10 9 8 7 5 4 4 3 2 2 2 2 1 1 2 2 2 2 2 2 2 3
4 3 2 0 2 2 3 2 1 2 3 4 7 9 11 12 13 13 13 13 13 12 13 13 12 11 11 10 9 8 7 6 5 5 4 3 2 2 2 2 2 2 1 1 1 1 2 2 2
2 1 2 2 2 2 3 3 2 2 2 4 6 8 10 10 12 12 12 12 12 11 11 11 12 11 11 10 9 7 7 6 5 5 4 4 3 3 3 2 2 2 2 1 1 0 1 1 1
4 4 3 1 2 1 2 2 2 0 1 2 4 7 8 9 10 11 11 11 11 10 10 11 11 11 10 10 9 8 7 7 6 5 5 4 4 4 4 3 3 2 2 1 1 0 0 0 0
3 3 4 2 1 2 1 1 2 1 2 1 2 4 6 8 9 10 10 11 10 10 10 11 11 10 10 9 9 8 7 7 7 6 5 5 4 4 4 4 3 3 2 2 1 1 1 1 1
Wind_Direction
182 168 194 222 218 127 95 92 107 115 95 85 84 88 83 57 55 87 93 96 97 95 92 91 86 88 88 87 85 83 85 86 82 80 76 74 71 72 72 72 69 66 62 59 57 54 55 57 56
168 178 224 238 230 131 101 108 111 97 114 110 85 84 81 71 65 90 106 101 101 96 91 86 87 88 88 88 86 84 84 83 80 76 73 72 71 70 70 68 65 62 61 59 56 53 55 55 53
163 222 249 223 109 93 112 115 114 108 110 108 94 70 68 79 79 93 107 113 104 96 91 88 87 88 89 88 86 84 83 81 78 76 72 71 70 68 66 65 63 61 58 55 52 51 53 53 52
211 210 210 121 96 72 109 123 124 122 103 92 107 89 79 65 79 107 115 114 106 100 96 92 88 89 88 85 83 82 80 78 76 73 69 66 64 63 61 60 60 59 57 54 51 51 54 52 52
236 230 163 117 97 92 107 118 129 121 113 112 110 102 91 80 98 109 113 111 106 103 100 97 90 88 85 83 80 78 75 73 71 68 64 60 58 57 56 54 53 54 53 51 49 51 53 53 52
218 217 170 136 115 115 118 123 128 117 113 114 112 109 97 110 112 111 112 109 105 105 103 103 96 89 83 79 77 75 73 71 68 65 62 57 53 51 50 50 51 53 54 52 49 49 51 54 55
244 189 147 134 132 133 131 131 134 126 121 115 120 112 120 124 117 117 113 110 106 107 105 105 108 104 96 81 72 70 68 66 64 60 57 54 51 47 44 48 50 54 56 53 51 50 53 56 56
292 160 141 144 146 134 134 127 119 123 114 116 121 124 136 136 130 123 116 112 111 110 109 106 104 101 100 95 78 69 67 63 62 61 55 55 77 74 57 60 54 52 54 51 49 49 54 57 59
244 189 159 150 151 136 144 136 123 116 121 113 100 113 129 134 137 134 128 124 117 110 109 108 104 100 93 90 90 89 85 69 75 80 68 35 51 58 69 53 51 48 50 51 50 48 51 65 89
243 177 124 120 138 139 146 138 135 140 131 122 117 118 130 141 144 142 139 133 127 119 110 108 106 100 93 86 86 75 74 65 54 49 48 44 52 50 51 85 67 59 57 72 56 43 97 314 81
66 104 112 112 125 137 141 136 142 144 140 142 140 140 144 147 148 146 138 130 123 121 116 111 107 98 90 87 80 72 68 63 58 48 49 42 47 54 50 54 76 66 50 58 68 58 52 56 56
97 93 111 118 126 138 138 135 134 133 128 137 140 144 148 151 150 149 142 136 134 126 119 115 107 101 94 88 83 77 71 60 55 45 40 38 40 40 46 43 42 45 52 45 45 44 54 54 61
104 107 104 114 122 129 127 125 121 118 124 133 139 146 150 151 147 144 139 139 138 134 130 117 110 96 93 86 83 81 71 56 60 45 36 39 38 44 47 49 44 44 45 51 45 50 53 49 52
112 113 112 115 119 126 126 121 125 130 138 140 146 150 154 153 152 151 152 150 145 144 135 131 127 111 105 100 91 81 76 73 60 51 42 40 44 44 43 54 50 44 41 42 50 64 64 58 53
126 119 111 108 117 131 134 127 134 142 149 149 153 153 154 160 161 162 157 157 151 147 143 141 135 123 110 98 90 85 75 69 62 53 43 46 45 43 48 47 50 43 43 50 49 62 60 62 66
143 146 137 123 131 152 168 140 141 153 158 157 160 158 164 173 177 168 162 162 157 158 153 146 147 138 121 112 105 92 78 70 64 56 46 43 44 44 48 47 47 41 43 51 56 47 58 62 58
170 158 146 143 147 160 169 144 150 163 168 168 170 170 174 177 181 172 171 168 165 166 161 157 154 147 135 127 115 98 86 72 64 58 49 40 42 42 50 43 37 43 46 49 57 56 52 65 67
161 153 150 150 153 163 161 151 155 172 178 178 179 181 181 185 184 178 177 174 169 171 166 156 155 156 145 141 128 113 94 83 71 62 53 42 40 41 47 50 42 41 50 53 65 69 62 62 64
149 148 141 135 146 165 167 168 173 180 184 187 188 188 188 192 186 181 180 177 177 177 174 166 168 165 162 156 153 137 113 99 84 68 60 53 46 43 46 42 45 37 51 50 62 74 83 71 60
145 144 139 131 148 170 164 181 191 191 198 200 200 196 194 194 190 187 188 186 188 184 183 179 177 176 175 168 156 136 117 108 92 81 68 54 50 45 45 49 55 53 58 57 56 56 58 69 26
153 159 151 143 143 156 162 190 195 195 204 208 213 211 204 201 197 190 192 191 191 190 189 187 184 179 180 173 158 144 136 145 132 107 78 56 53 50 44 48 51 52 54 58 49 46 40 51 51
144 146 154 160 171 167 198 191 197 194 201 209 211 211 212 208 204 196 194 194 194 193 191 190 185 183 179 178 184 181 177 153 128 112 102 89 69 60 52 56 53 55 55 59 55 51 38 17 39
131 138 146 164 173 175 196 215 184 191 204 207 208 208 212 209 205 201 200 197 195 190 188 190 184 184 183 186 186 194 183 158 141 134 124 108 88 69 58 55 57 57 59 57 54 50 39 40 26
139 141 134 167 200 201 199 225 190 195 213 210 205 205 208 207 205 205 201 195 192 188 186 187 187 186 187 190 191 194 183 173 161 161 151 140 118 97 78 64 68 64 61 61 55 55 56 46 44
179 181 174 181 189 179 170 231 244 205 220 217 208 203 202 200 199 199 196 194 191 189 189 189 189 189 190 194 196 194 191 186 184 181 171 168 139 121 101 88 76 73 70 66 55 55 49 55 51
197 221 222 174 168 153 183 223 198 72 219 216 209 201 196 194 196 196 194 194 192 191 191 192 193 194 191 195 195 194 191 194 190 193 190 181 160 133 122 124 100 89 85 80 68 44 49 46 51
194 208 292 291 164 171 171 185 188 163 172 182 192 194 194 195 194 195 194 193 192 191 192 193 194 193 192 194 193 193 192 194 194 194 194 186 180 160 160 157 145 134 117 82 70 48 54 45 32
281 209 208 231 186 168 171 190 172 145 155 174 187 193 194 193 192 193 192 192 192 191 190 192 195 194 192 193 193 193 195 194 196 199 194 189 185 179 185 184 176 164 151 141 108 68 38 51 52
181 198 213 231 278 252 172 127 53 43 348 219 198 193 197 194 191 189 188 189 187 185 185 188 191 192 191 194 194 192 192 194 194 198 197 197 196 193 198 198 201 194 188 172 154 196 156 287 356
241 236 225 236 217 261 261 106 69 327 318 278 221 201 196 191 187 184 182 180 181 183 186 188 189 190 190 191 192 193 190 193 197 198 200 199 197 199 203 200 205 204 209 204 201 216 220 256 303
Height
1520 1520 1521 1522 1520 1519 1525 1527 1526 1529 1532 1536 1536 1536 1538 1541 1543 1552 1554 1552 1553 1554 1554 1554 1554 1554 1555 1555 1555 1555 1555 1554 1554 1554 1554 1553 1553 1553 1552 1552 1551 1551 1551 1550 1550 1550 1549 1549 1548
1521 1521 1523 1522 1518 1524 1530 1527 1529 1531 1535 1538 1538 1540 1541 1545 1549 1551 1552 1553 1554 1555 1556 1556 1556 1556 1556 1556 1556 1556 1556 1556 1555 1555 1555 1554 1554 1554 1553 1553 1552 1552 1552 1551 1551 1550 1550 1550 1549
1521 1521 1523 1519 1519 1524 1530 1529 1531 1535 1538 1538 1540 1543 1545 1549 1551 1553 1554 1555 1556 1557 1557 1557 1557 1558 1558 1558 1558 1558 1557 1557 1557 1556 1556 1556 1555 1555 1554 1554 1553 1553 1552 1552 1551 1551 1551 1550 1550
1522 1523 1523 1519 1525 1527 1528 1531 1534 1536 1539 1540 1541 1545 1549 1552 1553 1555 1555 1557 1558 1559 1559 1559 1559 1559 1560 1560 1560 1560 1559 1559 1558 1558 1557 1557 1556 1556 1555 1555 1554 1554 1553 1552 1552 1552 1551 1551 1551
1522 1522 1519 1523 1527 1530 1531 1534 1535 1536 1539 1542 1543 1547 1552 1555 1555 1556 1557 1559 1560 1561 1561 1561 1561 1561 1561 1561 1561 1561 1561 1561 1560 1560 1559 1558 1558 1557 1556 1556 1555 1555 1554 1553 1553 1552 1552 1552 1552
1523 1519 1520 1527 1530 1532 1535 1537 1537 1538 1541 1544 1546 1548 1554 1557 1557 1558 1559 1561 1562 1562 1563 1563 1563 1563 1563 1563 1563 1563 1563 1562 1562 1561 1560 1560 1559 1558 1558 1557 1556 1556 1555 1554 1554 1553 1553 1553 1553
1523 1519 1521 1525 1531 1534 1536 1538 1538 1539 1542 1546 1547 1550 1556 1558 1559 1560 1561 1562 1563 1564 1565 1566 1566 1566 1565 1565 1565 1565 1564 1564 1564 1563 1562 1561 1561 1560 1559 1558 1557 1557 1556 1556 1555 1555 1554 1554 1554
1522 1520 1523 1525 1530 1534 1537 1539 1540 1542 1545 1548 1549 1551 1556 1559 1560 1562 1563 1564 1565 1566 1567 1568 1568 1568 1569 1568 1567 1566 1566 1566 1565 1564 1564 1563 1562 1561 1560 1560 1559 1558 1557 1557 1556 1556 1555 1555 1555
1522 1522 1524 1526 1529 1533 1537 1539 1542 1544 1546 1549 1550 1552 1556 1559 1561 1563 1565 1566 1567 1568 1569 1570 1570 1570 1570 1570 1568 1568 1568 1567 1567 1566 1565 1565 1565 1564 1563 1561 1560 1559 1558 1558 1557 1557 1556 1556 1556
1522 1522 1525 1527 1528 1532 1536 1539 1542 1545 1547 1550 1553 1555 1558 1560 1563 1565 1566 1568 1569 1570 1571 1571 1571 1571 1571 1571 1570 1570 1570 1569 1569 1568 1567 1567 1566 1564 1564 1562 1561 1560 1560 1559 1558 1558 1558 1558 1558
1523 1524 1528 1529 1531 1534 1537 1540 1542 1544 1547 1550 1552 1556 1559 1562 1564 1566 1568 1569 1570 1571 1571 1572 1573 1573 1572 1572 1572 1572 1571 1570 1570 1569 1569 1568 1567 1566 1565 1565 1564 1562 1562 1561 1560 1560 1560 1560 1559
1526 1529 1530 1532 1534 1536 1538 1541 1543 1545 1548 1551 1554 1557 1560 1563 1565 1567 1569 1570 1571 1572 1573 1573 1574 1574 1574 1573 1573 1573 1573 1572 1572 1571 1570 1569 1568 1567 1566 1566 1564 1564 1563 1562 1562 1561 1561 1561 1560
1528 1531 1533 1535 1536 1538 1540 1542 1545 1548 1551 1553 1556 1559 1562 1564 1566 1568 1570 1571 1572 1573 1574 1574 1575 1575 1575 1574 1574 1575 1574 1574 1573 1572 1572 1571 1570 1569 1568 1567 1565 1565 1564 1564 1563 1563 1562 1561 1561
1531 1533 1535 1537 1538 1540 1541 1544 1546 1550 1553 1556 1558 1561 1563 1565 1567 1569 1570 1572 1573 1574 1575 1575 1576 1576 1576 1576 1576 1576 1575 1575 1574 1574 1573 1572 1571 1570 1569 1569 1567 1566 1565 1565 1564 1564 1563 1562 1562
1533 1534 1537 1539 1540 1542 1543 1546 1548 1552 1554 1556 1559 1561 1564 1566 1568 1569 1571 1572 1574 1575 1576 1576 1577 1577 1577 1577 1577 1577 1576 1576 1576 1575 1574 1573 1572 1572 1571 1570 1569 1567 1566 1566 1565 1565 1564 1563 1562
1533 1534 1539 1541 1541 1542 1544 1549 1549 1552 1554 1557 1559 1562 1564 1566 1568 1570 1571 1572 1574 1575 1576 1577 1577 1578 1578 1578 1578 1578 1578 1577 1577 1576 1575 1575 1574 1573 1571 1571 1569 1568 1568 1567 1566 1565 1565 1564 1563
1533 1536 1539 1541 1541 1542 1542 1547 1549 1552 1555 1557 1559 1562 1564 1566 1568 1570 1571 1572 1574 1575 1576 1577 1578 1578 1578 1578 1578 1579 1578 1578 1578 1577 1576 1575 1575 1574 1573 1571 1570 1569 1568 1567 1567 1566 1566 1565 1564
1534 1535 1538 1540 1540 1541 1543 1545 1549 1552 1554 1556 1558 1561 1563 1565 1567 1569 1571 1572 1574 1575 1576 1577 1577 1578 1579 1579 1580 1579 1579 1579 1579 1578 1577 1576 1575 1574 1573 1572 1571 1570 1569 1568 1567 1566 1566 1566 1565
1529 1533 1538 1540 1540 1541 1543 1545 1548 1551 1553 1555 1557 1559 1561 1564 1566 1568 1570 1572 1573 1574 1576 1577 1578 1578 1579 1580 1580 1580 1580 1580 1579 1579 1578 1577 1576 1575 1574 1573 1572 1571 1570 1569 1569 1568 1567 1567 1566
1531 1535 1539 1541 1541 1542 1544 1545 1545 1548 1551 1553 1554 1557 1559 1562 1565 1567 1569 1570 1572 1574 1575 1577 1578 1578 1579 1579 1580 1580 1581 1580 1580 1579 1578 1578 1577 1576 1575 1574 1573 1572 1571 1570 1570 1569 1569 1568 1567
1533 1535 1538 1541 1542 1542 1545 1547 1545 1546 1549 1551 1553 1555 1557 1560 1562 1565 1567 1569 1571 1573 1574 1576 1577 1578 1578 1579 1580 1580 1580 1581 1580 1580 1579 1578 1578 1577 1576 1575 1574 1573 1573 1572 1570 1570 1569 1569 1568
1537 1535 1537 1539 1542 1544 1545 1550 1542 1541 1545 1548 1550 1552 1554 1557 1560 1562 1565 1567 1569 1571 1573 1575 1576 1577 1578 1579 1580 1581 1581 1581 1581 1580 1580 1579 1578 1577 1577 1576 1575 1574 1573 1572 1572 1571 1570 1569 1569
1536 1536 1537 1538 1541 1543 1543 1545 1539 1537 1540 1541 1545 1548 1550 1553 1556 1559 1562 1564 1567 1569 1571 1573 1575 1576 1577 1578 1579 1580 1581 1581 1581 1580 1580 1580 1579 1578 1577 1576 1576 1575 1574 1573 1572 1571 1570 1570 1570
1537 1538 1539 1539 1540 1549 1542 1543 1540 1533 1534 1535 1539 1543 1546 1550 1553 1556 1559 1562 1565 1567 1569 1571 1573 1575 1576 1577 1578 1579 1580 1580 1580 1580 1580 1580 1579 1579 1578 1577 1576 1576 1575 1574 1573 1572 1571 1570 1569
1536 1539 1547 1549 1550 1547 1538 1541 1535 1526 1528 1531 1535 1538 1542 1546 1549 1553 1556 1559 1562 1564 1567 1569 1571 1573 1574 1576 1577 1578 1579 1579 1580 1580 1580 1580 1580 1579 1578 1577 1577 1576 1575 1574 1573 1573 1572 1571 1570
1534 1534 1542 1549 1548 1542 1539 1537 1528 1525 1528 1530 1532 1536 1539 1542 1546 1549 1552 1556 1559 1562 1564 1567 1569 1571 1572 1574 1576 1577 1578 1578 1579 1579 1579 1579 1579 1579 1578 1577 1577 1576 1575 1575 1574 1573 1572 1572 1571
1532 1532 1531 1535 1536 1540 1535 1530 1525 1524 1526 1528 1530 1533 1536 1539 1543 1546 1549 1553 1556 1559 1561 1564 1567 1569 1570 1572 1574 1575 1576 1577 1578 1578 1578 1578 1578 1578 1577 1577 1577 1576 1575 1574 1574 1573 1573 1572 1571
1532 1530 1532 1535 1543 1544 1538 1532 1528 1524 1524 1526 1528 1531 1534 1537 1540 1543 1546 1550 1553 1556 1559 1562 1564 1566 1568 1570 1572 1573 1574 1575 1576 1577 1577 1577 1577 1577 1577 1577 1576 1576 1575 1574 1573 1573 1572 1572 1571
1533 1533 1532 1532 1533 1539 1543 1535 1521 1523 1524 1524 1526 1529 1532 1534 1537 1540 1543 1547 1550 1553 1556 1559 1561 1564 1566 1568 1570 1571 1572 1573 1574 1575 1575 1576 1576 1576 1576 1576 1576 1575 1574 1574 1573 1572 1572 1571 1571
1528 1528 1529 1535 1535 1533 1535 1534 1520 1522 1524 1525 1526 1528 1530 1532 1535 1538 1541 1544 1547 1550 1553 1556 1558 1561 1563 1565 1567 1569 1570 1571 1572 1573 1574 1574 1574 1574 1575 1575 1574 1574 1573 1573 1572 1571 1571 1570 1570